Location: Huesca
(42.1318°N, 0.4078°W)
Time: 16:30:28
(UTC+02:00)

RS-15 - Pass Details

Date: 02 May 2024
Orbit: 1898 x 2146 km, 64.8° (Epoch: 08 September)

Event Time Altitude Azimuth Distance (km) Brightness Sun altitude
Rises 04:31:18 0° 325° (NW) 5,405 10.5 -22.5°
Reaches altitude 10° 04:34:45 10° 329° (NNW) 4,376 10.1 -22.1°
Maximum altitude 04:45:48 62° 50° (NE) 2,096 8.4 -20.7°
Drops below altitude 10° 04:56:34 10° 130° (SE) 4,279 9.9 -19.3°
Sets 04:59:52 0° 134° (SE) 5,279 10.3 -18.9°
